Retour au catalogue

WESTFORD NEEDLES

ActifPO
NORAD 21660·DEBRIS·🇺🇸 United States

Lancé May 9, 1963 depuis Vandenberg Space Force Base

Loading…

Prochains Passages (prochaines 24 heures)

TLE

PériméSource: Space-Track

Époque: Aug 22, 2026, 00:36 UTC

1 21660U 63014FG  26234.02531104 -.00000015  00000-0 -22211-2 0  9990
2 21660  86.7466 252.8431 1390589 294.9360  72.8120  8.77259631 71474

Suivez WESTFORD NEEDLES en temps réel avec AllMySat

Download on the App Store